| time (UTC) | temp C | wind direction | speed KPH | gust KPH | rain 1hr cm | rain 24hr cm | rain mn cm | humidity % | barometer mb |
| 20260506184908 | 14 | 188 | 1.6 | 1.6 | 0.00 | 0.18 | 0.18 | 84 | 1016.6 |
| 20260506184405 | 13 | 101 | 1.6 | 1.6 | 0.00 | 0.18 | 0.18 | 84 | 1016.7 |
| 20260506183902 | 13 | 134 | 1.6 | 1.6 | 0.00 | 0.18 | 0.18 | 84 | 1016.6 |
| 20260506183357 | 13 | 262 | 3.2 | 4.8 | 0.00 | 0.18 | 0.18 | 83 | 1016.7 |
| 20260506182854 | 13 | 209 | 1.6 | 1.6 | 0.00 | 0.18 | 0.18 | 83 | 1016.5 |
| 20260506182351 | 13 | 175 | 1.6 | 1.6 | 0.00 | 0.18 | 0.18 | 83 | 1016.1 |
| 20260506181848 | 14 | 116 | 8.0 | 9.7 | 0.00 | 0.18 | 0.18 | 84 | 1015.8 |
| 20260506181347 | 13 | 82 | 1.6 | 1.6 | 0.00 | 0.18 | 0.18 | 85 | 1015.4 |
| 20260506180843 | 13 | 333 | 4.8 | 9.7 | 0.00 | 0.18 | 0.18 | 86 | 1015.1 |
| 20260506180339 | 13 | 72 | 8.0 | 12.9 | 0.00 | 0.18 | 0.18 | 85 | 1014.8 |
| 20260506175836 | 13 | 90 | 3.2 | 3.2 | 0.00 | 0.18 | 0.18 | 87 | 1014.9 |
| 20260506175332 | 13 | 316 | 3.2 | 11.3 | 0.00 | 0.18 | 0.18 | 87 | 1015.2 |
| 20260506174824 | 13 | 305 | 1.6 | 3.2 | 0.00 | 0.18 | 0.18 | 89 | 1015.1 |
| 20260506174321 | 13 | 68 | 1.6 | 4.8 | 0.00 | 0.18 | 0.18 | 90 | 1014.9 |
| 20260506173818 | 12 | 283 | 3.2 | 3.2 | 0.00 | 0.18 | 0.18 | 90 | 1015.4 |
| 20260506173315 | 12 | 253 | 4.8 | 4.8 | 0.00 | 0.18 | 0.18 | 91 | 1015.8 |
| 20260506172812 | 12 | 101 | 3.2 | 3.2 | 0.00 | 0.18 | 0.18 | 91 | 1015.8 |
| 20260506172308 | 12 | 249 | 1.6 | 1.6 | 0.00 | 0.18 | 0.18 | 92 | 1015.9 |
| 20260506171801 | 12 | 199 | 1.6 | 1.6 | 0.00 | 0.18 | 0.18 | 92 | 1015.8 |
| 20260506171258 | 12 | 160 | 0.0 | 1.6 | 0.00 | 0.18 | 0.18 | 92 | 1015.7 |
| 20260506170755 | 12 | 136 | 0.0 | 1.6 | 0.00 | 0.18 | 0.18 | 92 | 1015.8 |
| 20260506170251 | 12 | 195 | 0.0 | 1.6 | 0.00 | 0.18 | 0.18 | 92 | 1015.9 |
| 20260506165750 | 12 | 83 | 3.2 | 4.8 | 0.00 | 0.18 | 0.18 | 92 | 1016.3 |
| 20260506165247 | 12 | 201 | 1.6 | 3.2 | 0.00 | 0.18 | 0.18 | 92 | 1016.2 |
| 20260506164744 | 12 | 291 | 4.8 | 4.8 | 0.00 | 0.18 | 0.18 | 92 | 1015.9 |
| 20260506164241 | 12 | 319 | 4.8 | 8.0 | 0.00 | 0.18 | 0.18 | 93 | 1016.1 |
| 20260506163738 | 12 | 17 | 4.8 | 4.8 | 0.00 | 0.18 | 0.18 | 93 | 1015.6 |
| 20260506163232 | 12 | 187 | 0.0 | 0.0 | 0.00 | 0.18 | 0.18 | 93 | 1015.9 |
| 20260506162729 | 12 | 197 | 1.6 | 1.6 | 0.00 | 0.18 | 0.18 | 93 | 1015.9 |
| 20260506162226 | 12 | 76 | 0.0 | 1.6 | 0.00 | 0.18 | 0.18 | 93 | 1015.8 |
| 20260506161718 | 12 | 26 | 3.2 | 3.2 | 0.00 | 0.18 | 0.18 | 93 | 1015.9 |
| 20260506161215 | 12 | 310 | 4.8 | 4.8 | 0.00 | 0.18 | 0.18 | 93 | 1015.8 |
| 20260506160713 | 12 | 65 | 3.2 | 3.2 | 0.00 | 0.18 | 0.18 | 94 | 1016.1 |
| 20260506160209 | 12 | 38 | 3.2 | 4.8 | 0.00 | 0.18 | 0.18 | 95 | 1016.4 |
| 20260506155708 | 12 | 124 | 1.6 | 3.2 | 0.00 | 0.18 | 0.18 | 95 | 1016.3 |
| 20260506155204 | 12 | 76 | 0.0 | 3.2 | 0.00 | 0.18 | 0.18 | 95 | 1016.5 |
| 20260506153306 | 12 | 63 | 3.2 | 3.2 | 0.00 | 0.18 | 0.18 | 95 | 1015.3 |
| 20260506152803 | 11 | 86 | 1.6 | 3.2 | 0.00 | 0.18 | 0.18 | 94 | 1015.0 |
| 20260506152300 | 11 | 173 | 0.0 | 1.6 | 0.00 | 0.18 | 0.18 | 94 | 1015.7 |
| 20260506151759 | 12 | 333 | 6.4 | 9.7 | 0.30 | 0.18 | 0.18 | 92 | 1016.4 |
| 20260506151255 | 12 | 217 | 1.6 | 1.6 | 1.14 | 0.18 | 0.18 | 92 | 1017.5 |
| 20260506150752 | 12 | 175 | 3.2 | 3.2 | 0.84 | 0.15 | 0.15 | 90 | 1016.3 |
| 20260506150249 | 12 | 169 | 0.0 | 0.0 | 0.00 | 0.00 | 0.00 | 89 | 1017.4 |
| 20260506145746 | 12 | 219 | 3.2 | 3.2 | 0.00 | 0.00 | 0.00 | 88 | 1017.6 |
| 20260506145242 | 12 | 116 | 1.6 | 1.6 | 0.00 | 0.00 | 0.00 | 87 | 1017.6 |
| 20260506144740 | 12 | 204 | 3.2 | 3.2 | 0.00 | 0.00 | 0.00 | 86 | 1017.6 |
| 20260506144237 | 12 | 181 | 0.0 | 0.0 | 0.00 | 0.00 | 0.00 | 86 | 1017.4 |
| 20260506143734 | 12 | 234 | 3.2 | 3.2 | 0.00 | 0.00 | 0.00 | 85 | 1017.9 |
| 20260506143232 | 12 | 272 | 4.8 | 4.8 | 0.00 | 0.00 | 0.00 | 85 | 1017.1 |
| 20260506142730 | 12 | 351 | 4.8 | 9.7 | 0.00 | 0.00 | 0.00 | 85 | 1015.2 |
| 20260506142228 | 12 | 226 | 1.6 | 3.2 | 0.00 | 0.00 | 0.00 | 85 | 1016.1 |
| 20260506141726 | 12 | 171 | 3.2 | 4.8 | 0.00 | 0.00 | 0.00 | 85 | 1015.7 |
| 20260506141224 | 12 | 87 | 1.6 | 3.2 | 0.00 | 0.00 | 0.00 | 85 | 1016.2 |
| 20260506140721 | 12 | 1 | 6.4 | 9.7 | 0.00 | 0.00 | 0.00 | 84 | 1016.4 |
| 20260506140218 | 12 | 118 | 1.6 | 3.2 | 0.00 | 0.00 | 0.00 | 85 | 1015.8 |
| 20260506135714 | 12 | 277 | 4.8 | 8.0 | 0.00 | 0.00 | 0.00 | 84 | 1015.7 |
| 20260506135211 | 12 | 201 | 1.6 | 1.6 | 0.00 | 0.00 | 0.00 | 84 | 1016.1 |
| 20260506134708 | 12 | 224 | 4.8 | 8.0 | 0.00 | 0.00 | 0.00 | 84 | 1015.7 |
| 20260506134204 | 12 | 22 | 3.2 | 4.8 | 0.00 | 0.00 | 0.00 | 83 | 1015.4 |
| 20260506133701 | 12 | 117 | 4.8 | 4.8 | 0.00 | 0.00 | 0.00 | 83 | 1015.2 |
| 20260506133157 | 12 | 64 | 4.8 | 8.0 | 0.00 | 0.00 | 0.00 | 82 | 1015.4 |
| 20260506132655 | 12 | 191 | 1.6 | 4.8 | 0.00 | 0.00 | 0.00 | 82 | 1015.2 |
| 20260506132152 | 12 | 232 | 0.0 | 1.6 | 0.00 | 0.00 | 0.00 | 82 | 1015.1 |
| 20260506131650 | 12 | 59 | 3.2 | 4.8 | 0.00 | 0.00 | 0.00 | 82 | 1015.1 |
| 20260506131145 | 12 | 340 | 1.6 | 8.0 | 0.00 | 0.00 | 0.00 | 81 | 1015.0 |
| 20260506130642 | 12 | 343 | 3.2 | 4.8 | 0.00 | 0.00 | 0.00 | 80 | 1014.8 |
| 20260506130140 | 12 | 82 | 0.0 | 1.6 | 0.00 | 0.00 | 0.00 | 80 | 1014.6 |
| 20260506125638 | 13 | 61 | 1.6 | 3.2 | 0.00 | 0.00 | 0.00 | 79 | 1014.7 |
| 20260506125135 | 13 | 72 | 1.6 | 3.2 | 0.00 | 0.00 | 0.00 | 79 | 1014.7 |
| 20260506124633 | 13 | 245 | 1.6 | 3.2 | 0.00 | 0.00 | 0.00 | 79 | 1014.4 |
| 20260506124131 | 13 | 190 | 1.6 | 1.6 | 0.00 | 0.00 | 0.00 | 79 | 1014.6 |
| 20260506123628 | 13 | 45 | 3.2 | 3.2 | 0.00 | 0.00 | 0.00 | 79 | 1014.6 |
| 20260506123127 | 13 | 207 | 6.4 | 8.0 | 0.00 | 0.00 | 0.00 | 79 | 1014.5 |
| 20260506122623 | 13 | 15 | 4.8 | 4.8 | 0.00 | 0.00 | 0.00 | 79 | 1014.4 |
| 20260506122121 | 13 | 54 | 4.8 | 8.0 | 0.00 | 0.00 | 0.00 | 79 | 1014.0 |
| 20260506121618 | 13 | 227 | 8.0 | 11.3 | 0.00 | 0.00 | 0.00 | 79 | 1014.0 |
| 20260506121114 | 13 | 61 | 4.8 | 4.8 | 0.00 | 0.00 | 0.00 | 78 | 1014.3 |
| 20260506120613 | 13 | 279 | 6.4 | 9.7 | 0.00 | 0.00 | 0.00 | 79 | 1014.1 |
| 20260506120110 | 13 | 56 | 6.4 | 9.7 | 0.00 | 0.00 | 0.00 | 78 | 1014.1 |
| 20260506115608 | 13 | 354 | 3.2 | 4.8 | 0.00 | 0.00 | 0.00 | 78 | 1014.0 |
| 20260506115106 | 13 | 202 | 3.2 | 3.2 | 0.00 | 0.00 | 0.00 | 78 | 1014.3 |
| 20260506114603 | 13 | 337 | 9.7 | 11.3 | 0.00 | 0.00 | 0.00 | 78 | 1013.9 |
| 20260506114101 | 13 | 319 | 3.2 | 3.2 | 0.00 | 0.00 | 0.00 | 78 | 1014.0 |
| 20260506113559 | 13 | 34 | 1.6 | 3.2 | 0.00 | 0.00 | 0.00 | 78 | 1013.8 |
| 20260506113056 | 13 | 276 | 3.2 | 4.8 | 0.00 | 0.00 | 0.00 | 78 | 1013.6 |
| 20260506112552 | 13 | 341 | 6.4 | 9.7 | 0.00 | 0.00 | 0.00 | 79 | 1013.7 |
| 20260506112050 | 13 | 51 | 8.0 | 11.3 | 0.00 | 0.00 | 0.00 | 79 | 1013.5 |
| 20260506111547 | 13 | 337 | 1.6 | 1.6 | 0.00 | 0.00 | 0.00 | 79 | 1013.2 |
| 20260506111044 | 13 | 20 | 4.8 | 4.8 | 0.00 | 0.00 | 0.00 | 79 | 1013.3 |
| 20260506110542 | 13 | 223 | 3.2 | 3.2 | 0.00 | 0.00 | 0.00 | 78 | 1013.2 |
| 20260506110039 | 14 | 174 | 0.0 | 1.6 | 0.00 | 0.00 | 0.00 | 79 | 1013.3 |
| 20260506105535 | 14 | 213 | 1.6 | 3.2 | 0.00 | 0.00 | 0.00 | 79 | 1013.1 |
| 20260506105033 | 14 | 34 | 1.6 | 3.2 | 0.00 | 0.00 | 0.00 | 79 | 1013.0 |
| 20260506104531 | 14 | 28 | 4.8 | 8.0 | 0.00 | 0.00 | 0.00 | 79 | 1013.0 |
| 20260506104028 | 14 | 76 | 4.8 | 8.0 | 0.00 | 0.00 | 0.00 | 79 | 1013.2 |
| 20260506103525 | 14 | 139 | 1.6 | 3.2 | 0.00 | 0.00 | 0.00 | 79 | 1012.8 |
| 20260506103022 | 14 | 49 | 6.4 | 9.7 | 0.00 | 0.00 | 0.00 | 78 | 1012.7 |
| 20260506102520 | 15 | 237 | 3.2 | 3.2 | 0.00 | 0.00 | 0.00 | 79 | 1012.4 |
| 20260506102017 | 15 | 91 | 3.2 | 3.2 | 0.00 | 0.00 | 0.00 | 79 | 1012.4 |
| 20260506101513 | 15 | 47 | 4.8 | 8.0 | 0.00 | 0.00 | 0.00 | 79 | 1012.5 |
| 20260506101011 | 15 | 184 | 1.6 | 1.6 | 0.00 | 0.00 | 0.00 | 79 | 1012.2 |
| 20260506100509 | 15 | 234 | 1.6 | 1.6 | 0.00 | 0.00 | 0.00 | 79 | 1012.2 |
| 20260506100008 | 15 | 209 | 3.2 | 3.2 | 0.00 | 0.00 | 0.00 | 79 | 1012.1 |
| 20260506095506 | 15 | 312 | 4.8 | 4.8 | 0.00 | 0.00 | 0.00 | 79 | 1012.0 |
| 20260506095001 | 15 | 314 | 3.2 | 3.2 | 0.00 | 0.00 | 0.00 | 79 | 1012.0 |
| 20260506094459 | 15 | 313 | 4.8 | 9.7 | 0.00 | 0.00 | 0.00 | 79 | 1012.0 |
| 20260506093957 | 15 | 321 | 4.8 | 4.8 | 0.00 | 0.00 | 0.00 | 79 | 1012.1 |
| 20260506093455 | 15 | 198 | 0.0 | 0.0 | 0.00 | 0.00 | 0.00 | 79 | 1011.9 |
| 20260506092952 | 15 | 316 | 4.8 | 8.0 | 0.00 | 0.00 | 0.00 | 79 | 1011.9 |
| 20260506092450 | 15 | 72 | 4.8 | 4.8 | 0.00 | 0.00 | 0.00 | 79 | 1011.9 |
| 20260506091946 | 15 | 80 | 4.8 | 8.0 | 0.00 | 0.00 | 0.00 | 79 | 1011.9 |
| 20260506091445 | 15 | 85 | 3.2 | 3.2 | 0.00 | 0.00 | 0.00 | 79 | 1011.9 |
| 20260506090942 | 15 | 247 | 3.2 | 3.2 | 0.00 | 0.00 | 0.00 | 79 | 1011.9 |
| 20260506090440 | 15 | 193 | 1.6 | 3.2 | 0.00 | 0.00 | 0.00 | 79 | 1011.9 |
| 20260506085935 | 15 | 0 | 4.8 | 4.8 | 0.00 | 0.00 | 0.00 | 78 | 1011.7 |
| 20260506085432 | 16 | 27 | 3.2 | 3.2 | 0.00 | 0.00 | 0.00 | 78 | 1011.8 |
| 20260506084929 | 16 | 88 | 1.6 | 1.6 | 0.00 | 0.00 | 0.00 | 78 | 1011.6 |
| 20260506084426 | 16 | 355 | 1.6 | 3.2 | 0.00 | 0.00 | 0.00 | 78 | 1011.5 |
| 20260506083922 | 16 | 90 | 0.0 | 1.6 | 0.00 | 0.00 | 0.00 | 78 | 1011.6 |
| 20260506083419 | 16 | 37 | 1.6 | 3.2 | 0.00 | 0.00 | 0.00 | 78 | 1011.6 |
| 20260506082917 | 16 | 173 | 1.6 | 1.6 | 0.00 | 0.00 | 0.00 | 78 | 1011.4 |
| 20260506082414 | 16 | 201 | 0.0 | 0.0 | 0.00 | 0.00 | 0.00 | 78 | 1011.5 |
| 20260506081909 | 16 | 29 | 3.2 | 3.2 | 0.00 | 0.00 | 0.00 | 78 | 1011.7 |
| 20260506081408 | 16 | 87 | 1.6 | 1.6 | 0.00 | 0.00 | 0.00 | 79 | 1011.4 |
| 20260506080905 | 16 | 76 | 4.8 | 8.0 | 0.00 | 0.00 | 0.00 | 78 | 1011.4 |
| 20260506080402 | 16 | 48 | 1.6 | 1.6 | 0.00 | 0.00 | 0.00 | 79 | 1011.4 |
| 20260506073345 | 16 | 103 | 6.4 | 8.0 | 0.00 | 0.00 | 0.00 | 80 | 1011.2 |
| 20260506072842 | 16 | 146 | 0.0 | 0.0 | 0.00 | 0.00 | 0.00 | 80 | 1011.2 |
| 20260506072340 | 16 | 179 | 0.0 | 1.6 | 0.00 | 0.00 | 0.00 | 80 | 1011.2 |
| 20260506071838 | 16 | 26 | 4.8 | 4.8 | 0.00 | 0.00 | 0.00 | 80 | 1011.1 |
| 20260506071336 | 16 | 20 | 0.0 | 1.6 | 0.00 | 0.00 | 0.00 | 80 | 1011.3 |
| 20260506070832 | 16 | 92 | 3.2 | 3.2 | 0.00 | 0.00 | 0.00 | 80 | 1011.3 |
| 20260506070329 | 16 | 78 | 3.2 | 4.8 | 0.00 | 0.00 | 0.00 | 80 | 1011.1 |
| 20260506062306 | 17 | 163 | 3.2 | 4.8 | 0.00 | 0.00 | 0.00 | 80 | 1011.0 |
| 20260506061802 | 17 | 127 | 0.0 | 1.6 | 0.00 | 0.00 | 0.00 | 80 | 1011.1 |
| 20260506061259 | 17 | 301 | 0.0 | 1.6 | 0.00 | 0.00 | 0.00 | 79 | 1011.2 |
| 20260506060757 | 17 | 86 | 4.8 | 4.8 | 0.00 | 0.00 | 0.00 | 79 | 1011.0 |
| 20260506060254 | 17 | 115 | 1.6 | 1.6 | 0.00 | 0.00 | 0.00 | 79 | 1011.0 |
| 20260506051226 | 18 | 191 | 1.6 | 1.6 | 0.00 | 0.00 | 0.00 | 78 | 1011.3 |
| 20260506050724 | 18 | 194 | 0.0 | 0.0 | 0.00 | 0.00 | 0.00 | 78 | 1011.1 |
| 20260506050221 | 18 | 197 | 1.6 | 3.2 | 0.00 | 0.00 | 0.00 | 78 | 1011.1 |
| 20260506044707 | 18 | 320 | 8.0 | 9.7 | 0.00 | 0.00 | 0.00 | 77 | 1011.0 |
| 20260506044203 | 18 | 201 | 1.6 | 3.2 | 0.00 | 0.00 | 0.00 | 77 | 1010.9 |
| 20260506043701 | 19 | 349 | 3.2 | 4.8 | 0.00 | 0.00 | 0.00 | 77 | 1010.9 |
| 20260506043159 | 19 | 228 | 4.8 | 4.8 | 0.00 | 0.00 | 0.00 | 77 | 1011.2 |
| 20260506042658 | 19 | 198 | 1.6 | 1.6 | 0.00 | 0.00 | 0.00 | 77 | 1011.2 |
| 20260506042155 | 19 | 210 | 1.6 | 3.2 | 0.00 | 0.00 | 0.00 | 77 | 1011.1 |
| 20260506041654 | 20 | 217 | 4.8 | 8.0 | 0.00 | 0.00 | 0.00 | 76 | 1011.0 |
| 20260506041150 | 20 | 44 | 6.4 | 9.7 | 0.00 | 0.00 | 0.00 | 76 | 1010.8 |
| 20260506040648 | 20 | 206 | 1.6 | 1.6 | 0.00 | 0.00 | 0.00 | 76 | 1010.9 |
| 20260506040144 | 20 | 313 | 3.2 | 4.8 | 0.00 | 0.00 | 0.00 | 76 | 1010.8 |
| 20260506035641 | 20 | 353 | 1.6 | 3.2 | 0.00 | 0.00 | 0.00 | 75 | 1010.6 |
| 20260506035138 | 20 | 323 | 3.2 | 4.8 | 0.00 | 0.00 | 0.00 | 75 | 1010.3 |
| 20260506034635 | 20 | 330 | 6.4 | 8.0 | 0.00 | 0.00 | 0.00 | 75 | 1010.0 |
| 20260506034132 | 20 | 344 | 4.8 | 8.0 | 0.00 | 0.00 | 0.00 | 74 | 1010.4 |
| 20260506033629 | 20 | 74 | 4.8 | 4.8 | 0.00 | 0.00 | 0.00 | 74 | 1010.3 |
| 20260506033126 | 20 | 311 | 4.8 | 8.0 | 0.00 | 0.00 | 0.00 | 74 | 1009.9 |
| 20260506032623 | 20 | 166 | 3.2 | 4.8 | 0.00 | 0.00 | 0.00 | 73 | 1009.9 |
| 20260506032120 | 20 | 228 | 1.6 | 3.2 | 0.00 | 0.00 | 0.00 | 73 | 1009.7 |
| 20260506031617 | 21 | 131 | 1.6 | 1.6 | 0.00 | 0.00 | 0.00 | 72 | 1009.6 |
| 20260506031114 | 21 | 275 | 4.8 | 8.0 | 0.00 | 0.00 | 0.00 | 71 | 1009.6 |
| 20260506030613 | 21 | 311 | 4.8 | 4.8 | 0.00 | 0.00 | 0.00 | 71 | 1009.7 |
| 20260506030110 | 21 | 254 | 3.2 | 3.2 | 0.00 | 0.00 | 0.00 | 70 | 1009.4 |
| 20260506025607 | 21 | 177 | 1.6 | 1.6 | 0.00 | 0.00 | 0.00 | 70 | 1009.5 |
| 20260506025102 | 21 | 233 | 3.2 | 3.2 | 0.00 | 0.00 | 0.00 | 70 | 1009.7 |
| 20260506024600 | 21 | 152 | 3.2 | 3.2 | 0.00 | 0.00 | 0.00 | 71 | 1009.6 |
| 20260506024056 | 21 | 247 | 4.8 | 4.8 | 0.00 | 0.00 | 0.00 | 72 | 1009.2 |
| 20260506023552 | 21 | 9 | 1.6 | 3.2 | 0.00 | 0.00 | 0.00 | 71 | 1009.2 |
| 20260506023050 | 22 | 268 | 3.2 | 4.8 | 0.00 | 0.00 | 0.00 | 71 | 1009.1 |
| 20260506022547 | 22 | 272 | 6.4 | 8.0 | 0.00 | 0.00 | 0.00 | 71 | 1008.8 |
| 20260506022044 | 22 | 287 | 6.4 | 9.7 | 0.00 | 0.00 | 0.00 | 70 | 1008.9 |
| 20260506021536 | 22 | 12 | 4.8 | 4.8 | 0.00 | 0.00 | 0.00 | 70 | 1008.6 |
| 20260506021033 | 22 | 309 | 4.8 | 4.8 | 0.00 | 0.00 | 0.00 | 71 | 1008.7 |
| 20260506020531 | 22 | 219 | 6.4 | 8.0 | 0.00 | 0.00 | 0.00 | 70 | 1008.2 |
| 20260506020027 | 22 | 215 | 1.6 | 3.2 | 0.00 | 0.00 | 0.00 | 70 | 1007.9 |
| 20260506015524 | 22 | 247 | 1.6 | 3.2 | 0.00 | 0.00 | 0.00 | 70 | 1008.0 |
| 20260506015016 | 23 | 325 | 3.2 | 4.8 | 0.00 | 0.00 | 0.00 | 70 | 1007.9 |
| 20260506014514 | 23 | 177 | 0.0 | 0.0 | 0.00 | 0.00 | 0.00 | 70 | 1007.8 |
| 20260506014009 | 23 | 303 | 3.2 | 4.8 | 0.00 | 0.00 | 0.00 | 70 | 1007.8 |
| 20260506013508 | 23 | 222 | 3.2 | 8.0 | 0.00 | 0.00 | 0.00 | 69 | 1007.8 |
| 20260506013004 | 23 | 224 | 1.6 | 3.2 | 0.00 | 0.00 | 0.00 | 69 | 1007.8 |
| 20260506012500 | 23 | 304 | 3.2 | 3.2 | 0.00 | 0.00 | 0.00 | 69 | 1007.3 |
| 20260506011957 | 24 | 357 | 8.0 | 9.7 | 0.00 | 0.00 | 0.00 | 68 | 1007.1 |
| 20260506011454 | 25 | 77 | 6.4 | 9.7 | 0.00 | 0.00 | 0.00 | 68 | 1007.1 |
| 20260506010951 | 25 | 85 | 1.6 | 1.6 | 0.00 | 0.00 | 0.00 | 65 | 1007.4 |
| 20260506010450 | 25 | 181 | 1.6 | 1.6 | 0.00 | 0.00 | 0.00 | 65 | 1007.3 |
| 20260506005946 | 25 | 195 | 0.0 | 1.6 | 0.00 | 0.00 | 0.00 | 65 | 1007.1 |
| 20260506005444 | 25 | 182 | 1.6 | 1.6 | 0.00 | 0.00 | 0.00 | 65 | 1006.9 |
| 20260506004938 | 25 | 277 | 3.2 | 3.2 | 0.00 | 0.00 | 0.00 | 65 | 1007.0 |
| 20260506004437 | 25 | 82 | 1.6 | 3.2 | 0.00 | 0.00 | 0.00 | 65 | 1006.7 |
| 20260506003932 | 26 | 259 | 1.6 | 3.2 | 0.00 | 0.00 | 0.00 | 65 | 1006.9 |
| 20260506003429 | 26 | 194 | 1.6 | 1.6 | 0.00 | 0.00 | 0.00 | 64 | 1006.8 |
| 20260506002925 | 26 | 55 | 4.8 | 8.0 | 0.00 | 0.00 | 0.00 | 63 | 1006.8 |
| 20260506002421 | 26 | 57 | 1.6 | 3.2 | 0.00 | 0.00 | 0.00 | 62 | 1006.5 |
| 20260506001917 | 26 | 264 | 6.4 | 9.7 | 0.00 | 0.00 | 0.00 | 61 | 1006.7 |
| 20260506001414 | 27 | 312 | 4.8 | 8.0 | 0.00 | 0.00 | 0.00 | 61 | 1006.6 |
| 20260506000911 | 27 | 222 | 4.8 | 8.0 | 0.00 | 0.00 | 0.00 | 61 | 1006.7 |
| 20260506000409 | 27 | 193 | 1.6 | 3.2 | 0.00 | 0.00 | 0.00 | 61 | 1006.7 |
| 20260505235905 | 27 | 234 | 1.6 | 1.6 | 0.00 | 0.00 | 0.00 | 61 | 1006.6 |
| 20260505235404 | 28 | 51 | 3.2 | 4.8 | 0.00 | 0.00 | 0.00 | 60 | 1006.4 |
| 20260505234900 | 28 | 125 | 1.6 | 1.6 | 0.00 | 0.00 | 0.00 | 60 | 1006.1 |
| 20260505234358 | 28 | 280 | 8.0 | 11.3 | 0.00 | 0.00 | 0.00 | 59 | 1006.2 |
| 20260505233854 | 29 | 200 | 1.6 | 3.2 | 0.00 | 0.00 | 0.00 | 57 | 1006.3 |
| 20260505233352 | 30 | 160 | 0.0 | 1.6 | 0.00 | 0.00 | 0.00 | 55 | 1005.9 |
| 20260505232849 | 30 | 190 | 0.0 | 0.0 | 0.00 | 0.00 | 0.00 | 53 | 1005.8 |
| 20260505232347 | 30 | 2 | 1.6 | 3.2 | 0.00 | 0.00 | 0.00 | 52 | 1005.8 |
| 20260505231843 | 30 | 258 | 3.2 | 3.2 | 0.00 | 0.00 | 0.00 | 51 | 1005.7 |
| 20260505231341 | 30 | 332 | 3.2 | 8.0 | 0.00 | 0.00 | 0.00 | 51 | 1005.7 |
| 20260505230839 | 31 | 178 | 0.0 | 0.0 | 0.00 | 0.00 | 0.00 | 52 | 1005.5 |
| 20260505230336 | 31 | 175 | 3.2 | 3.2 | 0.00 | 0.00 | 0.00 | 59 | 1005.5 |
| 20260505225832 | 32 | 200 | 0.0 | 0.0 | 0.00 | 0.00 | 0.00 | 59 | 1005.5 |
| 20260505225330 | 32 | 187 | 4.8 | 4.8 | 0.00 | 0.00 | 0.00 | 58 | 1005.3 |
| 20260505224825 | 32 | 214 | 1.6 | 1.6 | 0.00 | 0.00 | 0.00 | 58 | 1005.1 |
| 20260505224323 | 33 | 199 | 0.0 | 1.6 | 0.00 | 0.00 | 0.00 | 54 | 1005.2 |
| 20260505223820 | 33 | 194 | 0.0 | 0.0 | 0.00 | 0.00 | 0.00 | 48 | 1005.0 |
| 20260505223317 | 33 | 202 | 0.0 | 0.0 | 0.00 | 0.00 | 0.00 | 46 | 1005.1 |
| 20260505222812 | 33 | 108 | 0.0 | 1.6 | 0.00 | 0.00 | 0.00 | 43 | 1005.0 |
| 20260505222309 | 34 | 206 | 0.0 | 1.6 | 0.00 | 0.00 | 0.00 | 44 | 1005.0 |
| 20260505221806 | 34 | 173 | 0.0 | 0.0 | 0.00 | 0.00 | 0.00 | 43 | 1005.0 |
| 20260505221303 | 34 | 195 | 0.0 | 0.0 | 0.00 | 0.00 | 0.00 | 47 | 1004.8 |
| 20260505220800 | 35 | 197 | 0.0 | 1.6 | 0.00 | 0.00 | 0.00 | 46 | 1004.9 |
| 20260505220257 | 35 | 181 | 0.0 | 0.0 | 0.00 | 0.00 | 0.00 | 49 | 1005.0 |
| 20260505215755 | 35 | 222 | 0.0 | 1.6 | 0.00 | 0.00 | 0.00 | 47 | 1005.1 |
| 20260505215252 | 34 | 204 | 1.6 | 3.2 | 0.00 | 0.00 | 0.00 | 49 | 1004.8 |
| 20260505214750 | 34 | 211 | 1.6 | 1.6 | 0.00 | 0.00 | 0.00 | 49 | 1004.9 |
| 20260505214247 | 33 | 204 | 1.6 | 1.6 | 0.00 | 0.00 | 0.00 | 50 | 1005.1 |
| 20260505213744 | 33 | 176 | 0.0 | 1.6 | 0.00 | 0.00 | 0.00 | 50 | 1005.2 |
| 20260505213242 | 33 | 207 | 1.6 | 3.2 | 0.00 | 0.00 | 0.00 | 50 | 1005.1 |
| 20260505212737 | 33 | 195 | 0.0 | 0.0 | 0.00 | 0.00 | 0.00 | 49 | 1005.1 |
| 20260505212235 | 33 | 189 | 0.0 | 0.0 | 0.00 | 0.00 | 0.00 | 50 | 1005.2 |
| 20260505211732 | 33 | 201 | 0.0 | 0.0 | 0.00 | 0.00 | 0.00 | 50 | 1005.4 |
| 20260505211229 | 33 | 222 | 1.6 | 1.6 | 0.00 | 0.00 | 0.00 | 50 | 1005.3 |
| 20260505210725 | 33 | 210 | 1.6 | 1.6 | 0.00 | 0.00 | 0.00 | 50 | 1005.3 |
| 20260505210222 | 33 | 211 | 0.0 | 1.6 | 0.00 | 0.00 | 0.00 | 52 | 1005.5 |
| 20260505205720 | 33 | 195 | 1.6 | 1.6 | 0.00 | 0.00 | 0.00 | 55 | 1005.7 |
| 20260505205218 | 33 | 204 | 0.0 | 0.0 | 0.00 | 0.00 | 0.00 | 54 | 1005.9 |
| 20260505204714 | 33 | 201 | 0.0 | 1.6 | 0.00 | 0.00 | 0.00 | 54 | 1005.8 |
| 20260505204212 | 33 | 188 | 4.8 | 4.8 | 0.00 | 0.00 | 0.00 | 51 | 1005.6 |
| 20260505203709 | 33 | 130 | 1.6 | 1.6 | 0.00 | 0.00 | 0.00 | 53 | 1005.7 |
| 20260505203206 | 33 | 195 | 1.6 | 1.6 | 0.00 | 0.00 | 0.00 | 55 | 1005.9 |
| 20260505202701 | 32 | 186 | 3.2 | 3.2 | 0.00 | 0.00 | 0.00 | 54 | 1006.0 |
| 20260505202158 | 33 | 208 | 0.0 | 0.0 | 0.00 | 0.00 | 0.00 | 56 | 1006.1 |
| 20260505201654 | 32 | 216 | 1.6 | 1.6 | 0.00 | 0.00 | 0.00 | 55 | 1006.2 |
| 20260505201153 | 32 | 181 | 1.6 | 3.2 | 0.00 | 0.00 | 0.00 | 56 | 1006.0 |
| 20260505200650 | 32 | 183 | 0.0 | 1.6 | 0.00 | 0.00 | 0.00 | 55 | 1006.3 |
| 20260505200147 | 32 | 220 | 3.2 | 3.2 | 0.00 | 0.00 | 0.00 | 56 | 1006.2 |
| 20260505195643 | 33 | 211 | 3.2 | 4.8 | 0.00 | 0.00 | 0.00 | 58 | 1006.2 |
| 20260505195140 | 32 | 182 | 3.2 | 4.8 | 0.00 | 0.00 | 0.00 | 58 | 1006.2 |
| 20260505194637 | 32 | 170 | 3.2 | 4.8 | 0.00 | 0.00 | 0.00 | 59 | 1006.3 |
| 20260505194133 | 32 | 239 | 0.0 | 0.0 | 0.00 | 0.00 | 0.00 | 59 | 1006.2 |
| 20260505193630 | 32 | 211 | 4.8 | 4.8 | 0.00 | 0.00 | 0.00 | 58 | 1006.4 |
| 20260505193127 | 32 | 241 | 1.6 | 3.2 | 0.00 | 0.00 | 0.00 | 56 | 1006.4 |
| 20260505192626 | 31 | 177 | 1.6 | 1.6 | 0.00 | 0.00 | 0.00 | 58 | 1006.1 |
| 20260505192123 | 32 | 247 | 1.6 | 3.2 | 0.00 | 0.00 | 0.00 | 59 | 1006.1 |
| 20260505191621 | 32 | 202 | 1.6 | 1.6 | 0.00 | 0.00 | 0.00 | 61 | 1006.3 |
| 20260505191119 | 31 | 161 | 3.2 | 3.2 | 0.00 | 0.00 | 0.00 | 62 | 1006.2 |
| 20260505190614 | 31 | 235 | 3.2 | 3.2 | 0.00 | 0.00 | 0.00 | 62 | 1006.3 |
| 20260505190110 | 31 | 174 | 3.2 | 4.8 | 0.00 | 0.00 | 0.00 | 61 | 1006.5 |
| 20260505185607 | 30 | 191 | 0.0 | 0.0 | 0.00 | 0.00 | 0.00 | 63 | 1006.3 |